[[{"header":{"parameterUnit":"m.s-1","parameterCategory":1,"la1":30.2991,"la2":30.254,"lo1":-89.0895,"lo2":-89.0444,"dy":0.0017,"dx":0.0017,"nx":28,"ny":28,"refTime":"2025-02-11T03:00:00:Z","depth":0,"parameterNumber":2,"parameterNumberName":"U-component_of_WINDS"},"data":[0,0,0,0,0,0,0,0,0,0,0,0,0,0,0,0,0,0,0,0,0,0,0,0,0,0,0,0,0,0,0,0,0,0,0,0,0,0,0,0,0,0,0,0,0,0,0,0,0,0,0,0,0,0,0,0,0,0,0.293,0.2932,0,0.3054,0.3055,0.3057,0.3078,0.3077,0.3076,0.3075,0.3203,0.3207,0.3211,0,0,0,0,0,0,0,0,0,0,0,0,0,0.2715,0.2719,0.293,0.2932,0.2933,0.3054,0.3055,0.3057,0.3078,0.3077,0.3075,0.3074,0.3201,0.3206,0.3212,0,0,0,0,0,0,0,0,0,0,0,0,0,0.282,0.272,0.293,0.2958,0.2962,0.3053,0.3055,0.3058,0.3078,0.3077,0.3075,0.3074,0.3199,0.3206,0.3212,0.3284,0,0,0.3232,0.3235,0,0,0,0,0,0,0,0,0.2814,0.2828,0.2953,0.2956,0.2961,0.3049,0.3026,0.3134,0.3079,0.3034,0.3075,0.3073,0.3153,0.3163,0.319,0.329,0.3296,0.3233,0.3237,0.324,0.3242,0,0,0,0,0,0,0,0.2807,0.2823,0.2979,0.2954,0.2959,0.2966,0.2979,0.3047,0.3101,0.3038,0.304,0.3054,0.3155,0.3183,0.3193,0.3298,0.3233,0.3239,0.3243,0.3245,0.3466,0.3468,0,0,0,0,0,0,0.2794,0.2817,0.2975,0.2983,0.2882,0.2971,0.2986,0.3022,0.31,0.3111,0.3055,0.3055,0.3173,0.3185,0.3197,0.3289,0.324,0.3246,0.325,0.3465,0.3467,0.3469,0,0,0,0,0,0,0.279,0.2808,0.297,0.2901,0.2922,0.2976,0.3017,0.3025,0.3054,0.3113,0.3123,0.3074,0.3172,0.3188,0.3263,0.3294,0.3249,0.3255,0.3462,0.3465,0.3468,0.3471,0,0,0,0,0,0,0.2783,0.2806,0.2834,0.2901,0.2925,0.3033,0.3019,0.3029,0.3065,0.3066,0.3134,0.3144,0.3172,0.3253,0.327,0.3302,0.326,0.346,0.3464,0.3467,0.3469,0.3474,0.3478,0,0,0,0,0,0.2776,0.283,0.2835,0.2854,0.296,0.3035,0.3049,0.308,0.3068,0.3096,0.3134,0.3142,0.3287,0.3261,0.3279,0.3314,0.3458,0.3462,0.3467,0.3467,0.3473,0.3478,0,0,0,0,0,0,0.2765,0.2839,0.2846,0.2923,0.2972,0.3038,0.3075,0.3085,0.314,0.3138,0.3175,0.319,0.3264,0.3296,0.3265,0.3389,0.3372,0.338,0.3365,0.3372,0.3377,0.3368,0.3265,0,0,0,0,0,0.2771,0.2825,0.2887,0.2949,0.2974,0.302,0.3054,0.3073,0.3126,0.3148,0.3191,0.3243,0.3301,0.3338,0.3394,0.3473,0.3489,0.3506,0.3511,0.3515,0.3522,0.3569,0.3577,0.3483,0.3483,0.3483,0,0,0.2785,0.2832,0.2864,0.2948,0.2989,0.3045,0.3037,0.3096,0.3139,0.3157,0.3231,0.3264,0.3325,0.3402,0.3439,0.3432,0.3552,0.352,0.3523,0.3528,0.3574,0.3583,0.3591,0.3486,0.3486,0.3485,0,0,0.284,0.288,0.2937,0.2978,0.304,0.3071,0.3085,0.315,0.3173,0.3248,0.3263,0.3314,0.3412,0.3455,0.3489,0.3562,0.3571,0.3579,0.3605,0.365,0.3657,0.3664,0.3692,0.3701,0.3586,0.3586,0.3586,0,0.2849,0.2934,0.2965,0.3024,0.3062,0.3081,0.314,0.3178,0.3255,0.3281,0.3272,0.3397,0.3438,0.3528,0.3546,0.3572,0.359,0.3572,0.3653,0.3661,0.3667,0.3694,0.3704,0.3586,0.3586,0.3586,0.3586,0,0.2944,0.3002,0.3041,0.3115,0.3157,0.3216,0.3257,0.3296,0.3312,0.3344,0.3421,0.3472,0.354,0.3562,0.3578,0.3654,0.3648,0.3646,0.3629,0.3677,0.3703,0.3713,0.3587,0.3587,0.3587,0.3587,0,0,0.2994,0.3087,0.3101,0.3136,0.3206,0.3252,0.3312,0.3379,0.3412,0.3465,0.3517,0.36,0.3599,0.3638,0.366,0.3699,0.3756,0.3692,0.3694,0.3704,0.3845,0.3847,0.3859,0.3762,0.3764,0.3765,0.384,0,0.3059,0.3166,0.3198,0.3289,0.3344,0.3364,0.3417,0.3466,0.3498,0.355,0.3585,0.3645,0.3637,0.3661,0.3701,0.374,0.3785,0.3735,0.3812,0.3815,0.3798,0.3872,0.3875,0.3943,0.385,0.3852,0.3853,0,0.3148,0.3203,0.33,0.3365,0.339,0.3436,0.3501,0.355,0.3607,0.3628,0.3672,0.3691,0.3756,0.3735,0.3826,0.3791,0.3825,0.3849,0.3852,0.3862,0.3838,0.3885,0.3965,0.3976,0.3869,0.3868,0.3867,0,0.3177,0.3276,0.3347,0.3376,0.3454,0.3486,0.352,0.3576,0.3614,0.3671,0.3696,0.3759,0.3794,0.3843,0.3878,0.3859,0.3967,0.3948,0.3987,0.3986,0.401,0.4008,0.4098,0.4029,0.4028,0.4028,0.4028,0,0.3246,0.3305,0.3362,0.3406,0.3473,0.3509,0.3575,0.3609,0.3659,0.3711,0.3731,0.378,0.3823,0.3877,0.3905,0.3978,0.3993,0.4012,0.4019,0.4011,0.4009,0.4035,0.4032,0.4031,0.403,0.403,0.4029,0,0.3291,0.3331,0.341,0.3478,0.3496,0.3543,0.3601,0.3645,0.3678,0.3743,0.3761,0.3813,0.3878,0.3918,0.4001,0.402,0.41,0.4104,0.4081,0.4085,0.4122,0.4118,0.4232,0.425,0.4167,0.4168,0.4168,0,0.3333,0.3379,0.3452,0.3488,0.3523,0.3581,0.3621,0.3658,0.3698,0.3768,0.3804,0.3871,0.3927,0.403,0.4076,0.414,0.4147,0.4183,0.4157,0.4148,0.415,0.4147,0.4153,0.4187,0.4188,0.4188,0.4189,0,0.3404,0.3422,0.3479,0.3543,0.359,0.3642,0.3694,0.3723,0.3769,0.3814,0.3881,0.3925,0.401,0.4077,0.4145,0.418,0.4193,0.4197,0.4209,0.4202,0.4188,0.4198,0.4095,0.4194,0.4194,0.4193,0.4193,0.4193,0.345,0.3493,0.3552,0.3614,0.3658,0.3706,0.3752,0.3791,0.3848,0.392,0.3939,0.401,0.4068,0.416,0.4198,0.4255,0.4249,0.4267,0.4272,0.4276,0.4278,0.4177,0.4267,0.4267,0.4267,0.4267,0.4267,0,0.3524,0.3563,0.362,0.3693,0.3743,0.3751,0.3809,0.3851,0.3913,0.3966,0.402,0.4099,0.4164,0.4215,0.4282,0.4318,0.4326,0.4335,0.4333,0.4342,0.4278,0.4261,0.4327,0.4327,0.4327,0.4327,0.4327,0.4327,0.3568,0.3642,0.3667,0.3763,0.3801,0.3872,0.3905,0.395,0.3993,0.408,0.4134,0.4167,0.422,0.4291,0.4352,0.4365,0.439,0.4398,0.4412,0.4352,0.4346,0.4339,0.4324,0.4402,0.4402,0.4472,0.4472,0.4473]},{"header":{"parameterUnit":"m.s-1","parameterCategory":1,"la1":30.2991,"la2":30.254,"lo1":-89.0895,"lo2":-89.0444,"dy":0.0017,"dx":0.0017,"nx":28,"ny":28,"refTime":"2025-02-11T03:00:00:Z","depth":0,"parameterNumber":3,"parameterNumberName":"V-component_of_WINDS"},"data":[0,0,0,0,0,0,0,0,0,0,0,0,0,0,0,0,0,0,0,0,0,0,0,0,0,0,0,0,0,0,0,0,0,0,0,0,0,0,0,0,0,0,0,0,0,0,0,0,0,0,0,0,0,0,0,0,0,0,5.8972,5.8975,0,5.9177,5.9179,5.9181,5.9195,5.9192,5.919,5.9188,5.9398,5.9406,5.9413,0,0,0,0,0,0,0,0,0,0,0,0,0,5.8596,5.8603,5.8972,5.8975,5.8977,5.9176,5.9179,5.9182,5.9195,5.9192,5.9189,5.9187,5.9395,5.9405,5.9414,0,0,0,0,0,0,0,0,0,0,0,0,0,5.8776,5.8605,5.8972,5.9008,5.9013,5.9176,5.9179,5.9183,5.9196,5.9192,5.9189,5.9185,5.9392,5.9404,5.9415,5.9556,0,0,5.9451,5.9456,0,0,0,0,0,0,0,0,5.8765,5.8789,5.9,5.9006,5.9012,5.9157,5.9124,5.9308,5.9196,5.9126,5.9188,5.9184,5.9321,5.9338,5.9384,5.9566,5.9575,5.9452,5.9459,5.9464,5.9467,0,0,0,0,0,0,0,5.8753,5.8781,5.9053,5.9003,5.901,5.9015,5.9036,5.9159,5.924,5.9132,5.9134,5.9158,5.9323,5.9373,5.9389,5.9578,5.9451,5.9462,5.9469,5.9473,5.9892,5.9895,0,0,0,0,0,0,5.8733,5.877,5.9047,5.9059,5.8878,5.9024,5.9049,5.9114,5.9239,5.9255,5.916,5.9157,5.9354,5.9375,5.9396,5.9574,5.9464,5.9475,5.9481,5.9887,5.9892,5.9897,0,0,0,0,0,0,5.8725,5.8758,5.9038,5.8915,5.8951,5.9034,5.9107,5.912,5.9169,5.926,5.9275,5.9196,5.9353,5.938,5.9518,5.9581,5.948,5.949,5.9883,5.9889,5.9895,5.9927,0,0,0,0,0,0,5.8714,5.8755,5.8808,5.8916,5.8958,5.9156,5.9111,5.9126,5.9189,5.9187,5.9298,5.9313,5.9352,5.95,5.9529,5.9595,5.9499,5.9877,5.9885,5.9893,5.9921,5.9934,5.9945,0,0,0,0,0,5.8701,5.8809,5.8811,5.8844,5.9027,5.9159,5.9183,5.9226,5.9194,5.925,5.9309,5.9309,5.9569,5.9514,5.9547,5.9617,5.9874,5.9883,5.9892,5.9916,5.9931,5.9945,0,0,0,0,0,0,5.8705,5.8823,5.8827,5.8973,5.9056,5.9161,5.9232,5.924,5.9334,5.9328,5.9378,5.9403,5.954,5.9592,5.9529,5.9763,5.9718,5.9734,5.9725,5.974,5.9752,5.9738,5.9509,0,0,0,0,0,5.8723,5.8821,5.8918,5.9038,5.9079,5.9149,5.9208,5.9234,5.9322,5.9357,5.9426,5.9512,5.9613,5.9679,5.9777,5.9927,5.9954,5.9993,6.0004,6.0014,6.0028,6.0117,6.0136,5.9927,5.9927,5.9927,0,0,5.8762,5.8838,5.8896,5.9041,5.9108,5.9209,5.9178,5.9285,5.9362,5.9373,5.9509,5.9562,5.9661,5.9807,5.9875,5.9855,6.0092,6.0026,6.0032,6.0042,6.0128,6.0148,6.0165,5.9934,5.9933,5.9932,0,0,5.8884,5.895,5.9059,5.9128,5.923,5.9276,5.9302,5.9407,5.9443,5.958,5.9592,5.9683,5.9855,5.9927,5.9986,6.0138,6.0144,6.0168,6.0232,6.0318,6.0334,6.0349,6.0408,6.0427,6.0182,6.0182,6.0182,0,5.8919,5.9072,5.9114,5.9223,5.9288,5.9303,5.9415,5.9479,5.9609,5.9654,5.9629,5.9849,5.9916,6.0081,6.0119,6.0164,6.0198,6.0158,6.0328,6.0343,6.0358,6.0415,6.0436,6.0185,6.0184,6.0184,6.0184,0,5.9112,5.9217,5.9293,5.9419,5.9492,5.9601,5.9662,5.9731,5.9751,5.98,5.994,6.0022,6.0139,6.0179,6.0198,6.0348,6.0333,6.0317,6.0274,6.038,6.0434,6.0456,6.0189,6.0188,6.0187,6.0186,0,0,5.9244,5.9393,5.9421,5.948,5.9596,5.9679,5.979,5.9905,5.9965,6.0053,6.015,6.0297,6.0284,6.0351,6.0379,6.0453,6.0574,6.0429,6.0432,6.0457,6.0749,6.0763,6.0787,6.0577,6.0581,6.0584,6.0742,0,5.9383,5.9582,5.9624,5.9797,5.9897,5.9914,6.0012,6.0094,6.0143,6.0236,6.0289,6.0395,6.0367,6.0409,6.0483,6.0543,6.0634,6.0532,6.0671,6.0675,6.0649,6.0815,6.083,6.0975,6.0763,6.0767,6.0769,0,5.9571,5.9666,5.9849,5.9955,5.9999,6.0086,6.0196,6.0284,6.0378,6.0409,6.0485,6.0506,6.0624,6.0572,6.0738,6.0668,6.0727,6.0766,6.0772,6.079,6.0731,6.0841,6.1021,6.1045,6.0802,6.0799,6.0797,0,5.9655,5.9828,5.9962,6.0011,6.0136,6.0198,6.0253,6.0344,6.0411,6.0507,6.0552,6.066,6.0721,6.0805,6.0855,6.0812,6.1019,6.097,6.1051,6.105,6.1096,6.1094,6.1293,6.1127,6.1127,6.1126,6.1126,0,5.9808,5.992,6.0002,6.0084,6.0211,6.0259,6.0384,6.0439,6.052,6.0615,6.0634,6.0723,6.0782,6.0879,6.0919,6.1053,6.1079,6.1109,6.1119,6.111,6.1107,6.1152,6.1145,6.1132,6.1131,6.113,6.1129,0,5.9924,5.9983,6.013,6.0237,6.0267,6.0356,6.0449,6.053,6.0579,6.0699,6.073,6.0808,6.0924,6.0981,6.1125,6.1152,6.1305,6.1306,6.1273,6.1278,6.1357,6.1351,6.1596,6.1633,6.1438,6.144,6.1441,0,6.002,6.0108,6.0225,6.029,6.0347,6.0451,6.0521,6.0571,6.0643,6.0759,6.0827,6.0944,6.1041,6.1225,6.1295,6.1406,6.1413,6.1492,6.143,6.142,6.142,6.1416,6.1427,6.1504,6.1506,6.1507,6.1508,0,6.0186,6.0211,6.031,6.0422,6.0504,6.0594,6.0682,6.0734,6.0799,6.0879,6.0998,6.1073,6.1221,6.1339,6.1455,6.1512,6.1524,6.1527,6.1552,6.1546,6.1525,6.1542,6.1308,6.1522,6.152,6.1519,6.1519,6.1518,6.0298,6.0379,6.0475,6.0586,6.0658,6.074,6.0824,6.0884,6.0984,6.111,6.1133,6.126,6.1355,6.1513,6.1574,6.1676,6.1659,6.1694,6.1704,6.1714,6.172,6.1505,6.1697,6.1696,6.1696,6.1696,6.1696,0,6.0469,6.0532,6.0634,6.0758,6.0846,6.0847,6.0945,6.1019,6.1132,6.1219,6.1314,6.1453,6.1568,6.1647,6.1763,6.183,6.1838,6.1859,6.1857,6.1871,6.1726,6.1695,6.1851,6.1851,6.1851,6.1851,6.1851,6.1851,6.0569,6.0706,6.0743,6.0917,6.0979,6.1105,6.1162,6.1239,6.131,6.1464,6.156,6.161,6.1696,6.1819,6.1925,6.1945,6.1989,6.2012,6.2033,6.1897,6.1881,6.1865,6.1836,6.202,6.202,6.217,6.2172,6.2173]}]]